Location: Hillsboro
(38.3483°N, 97.1938°W)
Time: 07:28:47
(UTC-05:00)

Daily predictions for brighter satellites

Satellite Brightness Start Highest point End
(mag) Time Altitude Azimuth Time Altitude Azimuth Time Altitude Azimuth
BREEZE-M DEB (TANK) 3.6 21:08:34 10° W 21:10:44 39° NNW 21:14:24 10° NE
Meteor 2-3 Rocket 4.4 21:08:36 10° SSW 21:14:08 60° W 21:19:40 10° N
Envisat 4.0 21:10:02 10° SE 21:14:21 29° ENE 21:18:40 10° N
CZ-3C R/B 4.2 20:28:50 10° SW 21:14:57 30° S 21:23:42 10° SE
Cosmos 2184 Rocket 4.0 21:08:54 10° S 21:15:02 77° E 21:21:13 10° N
H-2A R/B 3.3 21:13:12 10° ESE 21:16:40 24° ENE 21:20:04 10° NNE
COSMOS 2487 4.2 21:18:14 10° NNE 21:20:52 19° ENE 21:23:26 10° ESE
Cosmos 1606 3.7 21:17:46 10° NNE 21:21:17 30° ENE 21:24:45 10° SE
NOSS 5 (C) 4.3 21:21:42 10° SSW 21:25:15 64° ESE 21:28:21 10° NE
Cosmos 1892 3.5 21:21:42 10° SSW 21:25:27 56° W 21:29:16 10° N
ALOS 3.1 21:23:10 10° S 21:27:43 54° W 21:32:19 10° NNW
ERS-1 Rocket 3.1 21:23:54 10° SSE 21:28:50 59° ENE 21:33:47 10° N
BREEZE-M DEB (TANK) 4.1 21:27:24 10° WNW 21:29:03 16° NNW 21:30:31 10° NNE
Meteor 1-27 Rocket 4.0 21:26:59 10° N 21:32:23 50° ENE 21:37:42 10° SSE
SJ-11-01 4.4 21:27:50 10° SSE 21:32:31 65° ENE 21:37:14 10° N
Cosmos 407 Rocket 3.5 21:27:47 10° NNW 21:33:05 74° ENE 21:38:24 10° SSE
Okean 3 4.4 21:34:30 10° NNE 21:38:19 31° ENE 21:41:10 15° SE
H-2A R/B 4.1 21:35:00 10° SSW 21:38:28 38° W 21:41:58 10° NNW
Cosmos 1782 2.9 21:37:05 10° N 21:41:08 82° W 21:45:10 10° S
USA 186 3.6 21:39:35 10° SSW 21:42:24 30° W 21:45:20 10° NNW
Cosmos 1452 Rocket 3.5 21:38:38 10° SSW 21:43:53 79° ESE 21:49:10 10° NNE
Cosmos 1674 Rocket 3.7 21:40:11 10° N 21:44:39 77° W 21:49:03 10° S
H-2A R/B 4.2 21:43:47 10° ENE 21:44:55 11° ENE 21:46:03 10° NE
Okean 2 Rocket 3.7 21:45:12 13° SSE 21:48:40 35° E 21:52:40 10° NNE
Cosmos 1190 Rocket 4.4 21:43:38 10° NNW 21:48:46 63° WSW 21:53:53 10° S
ATLAS 5 CENTAUR R/B 3.5 21:46:10 10° NW 21:51:50 40° WSW 21:57:49 10° S
OAO 3 Rocket 3.9 21:50:55 10° SW 21:55:24 34° SSE 21:58:14 19° ESE
Cosmos 1184 Rocket 2.9 21:52:57 14° S 21:55:38 53° E 21:58:55 10° NNE
Cosmos 1939 Rocket 2.7 21:52:49 14° SSE 21:56:10 86° ENE 22:00:06 10° N
ISS -2.2 21:53:06 10° WSW 21:56:16 47° NW 21:59:26 10° NE
Cosmos 1242 Rocket 3.6 21:53:29 10° NNE 21:56:44 29° ENE 21:58:03 23° ESE
Atlas Centaur 2 2.7 21:54:29 10° WSW 21:56:59 18° SSW 21:57:58 16° S
YAOGAN 6 3.7 21:56:00 21° ESE 21:57:14 27° ENE 22:00:15 10° NNE
Cosmos 1408 2.4 21:55:26 10° S 21:59:05 74° E 22:02:44 10° N
Cosmos 1782 Rocket 3.6 21:54:50 10° S 21:59:12 58° E 22:03:36 10° NNE
Sich 1 Rocket 4.2 21:55:53 10° SSW 22:00:24 60° W 22:04:57 10° N
Nadezhda 3 Rocket 4.0 21:57:19 10° N 22:03:44 84° E 22:09:52 11° S
CENTAUR R/B 4.4 21:57:26 10° NW 22:04:29 35° WSW 22:11:47 10° S
Cosmos 1238 Rocket 2.5 22:01:38 10° N 22:05:01 70° E 22:07:25 22° SSE
SPOT 5 3.1 22:04:32 19° SSE 22:08:20 68° ENE 22:13:40 10° N
Cosmos 1825 2.3 22:06:20 10° S 22:10:08 76° W 22:13:59 10° N
Cosmos 1833 Rocket 3.9 22:10:10 10° N 22:14:58 28° ENE 22:17:28 20° E
Cosmos 1975 Rocket 2.9 22:11:26 10° N 22:15:46 71° E 22:18:01 27° SSE
MetOp-A 4.1 22:13:07 23° SSE 22:16:30 68° ENE 22:21:49 10° N
DNEPR-1 R/B 4.0 22:11:53 10° NNW 22:17:08 58° NE 22:19:11 31° ESE
Cosmos 2278 Rocket 2.5 22:11:37 10° SSW 22:17:16 70° WNW 22:22:56 10° NNE
Cosmos 1850 Rocket 4.3 22:12:31 10° N 22:17:44 52° ENE 22:20:15 29° SE
UNK 4.4 22:12:29 10° NNE 22:18:36 62° ESE 22:23:43 14° S
Cosmos 1174 4.4 22:17:47 10° NW 22:20:38 33° WSW 22:21:43 24° SSW
COS B Rocket 3.8 22:18:54 10° N 22:22:46 53° W 22:25:27 16° SSW
Cosmos 1954 Rocket 4.2 22:18:26 10° NNW 22:23:37 67° WSW 22:27:04 21° S
Cosmos 1378 Rocket 4.2 22:22:06 10° NNW 22:26:18 52° W 22:29:29 17° SSW
Cosmos 2341 Rocket 4.3 22:22:55 10° SSW 22:29:12 70° W 22:35:27 10° N
USA 229 DEB 4.3 22:22:54 10° NNW 22:29:44 47° NE 22:33:32 26° ESE
USA 229 4.3 22:23:00 10° NNW 22:29:50 46° NE 22:33:38 26° ESE
BREEZE-M DEB (TANK) 3.2 22:25:29 10° WNW 22:36:45 74° NNE 22:38:18 38° ESE
Cosmos 1741 Rocket 3.9 22:33:31 10° NNW 22:38:46 79° ENE 22:40:43 39° SSE
Cosmos 2082 Rocket 2.5 22:33:13 10° NNW 22:38:49 55° ENE 22:40:49 36° ESE
SL-8 Rocket 3.9 22:34:24 18° S 22:39:19 84° E 22:45:34 10° N
Cosmos 1812 4.3 22:36:46 10° NNE 22:39:21 22° ENE 22:39:21 22° ENE
Meteor 1-14 Rocket 4.1 22:36:23 23° S 22:40:05 78° E 22:45:42 10° NNE
GPS 2-05 Rocket1 3.1 22:37:12 10° W 22:40:33 54° SSW 22:40:33 54° SSW
USA 245 2.8 22:42:27 73° SE 22:42:44 81° ENE 22:46:46 10° N
Timation 2 Rocket 3.9 22:40:37 10° NNW 22:46:36 79° WSW 22:49:13 36° SSE
Intercosmos 25 3.7 22:47:33 29° SW 22:48:59 50° W 22:52:05 10° N
Cosmos 1110 Rocket 4.2 22:50:53 47° SE 22:51:27 49° ESE 22:56:28 10° NNE
H-2A R/B 3.9 22:49:42 14° SSW 22:52:34 26° W 22:56:08 10° NW
Cosmos 2297 4.0 22:47:57 10° SSW 22:53:37 69° WNW 22:59:22 10° NNE
Cosmos 2151 Rocket 3.5 22:53:44 52° S 22:54:50 86° E 22:59:24 10° N
COSMOS 2487 4.5 22:53:32 10° NW 22:56:25 23° W 22:57:31 20° SW
NOAA 11 4.1 22:57:39 43° S 22:59:34 85° WSW 23:05:06 10° NNW
CZ-4 R/B 3.6 22:56:54 10° NNE 23:01:35 88° E 23:02:42 53° SSW
OAO 1 Rocket 4.4 22:59:39 10° WSW 23:04:53 60° S 23:05:03 59° SSE
Cosmos 614 Rocket 4.1 23:00:22 10° NNW 23:05:23 63° WSW 23:06:40 46° SSW
Cosmos 864 Rocket 4.4 23:06:31 34° S 23:09:23 84° W 23:15:35 10° N
Cosmos 1300 Rocket 4.2 23:10:39 43° ENE 23:10:39 43° ENE 23:14:10 10° NNE
Okean 1 Rocket 3.8 23:15:49 41° NE 23:15:49 41° NE 23:19:10 10° NNE
CZ-4C R/B 3.5 23:17:11 67° N 23:17:11 67° N 23:20:48 10° N
Gbstr 26 Del rocket 4.4 23:13:02 10° NW 23:17:28 31° NNE 23:18:29 28° NE
Landsat 7 3.6 23:19:26 79° S 23:19:44 86° WSW 23:24:31 10° NNW
Cosmos 2366 rocket 4.3 23:16:58 28° SSW 23:20:25 65° W 23:26:44 10° N
H-2A R/B 2.0 23:22:52 70° SSE 23:23:31 85° ENE 23:28:51 10° NNW
Cosmos 2369 Rocket 3.7 23:26:49 21° ENE 23:26:49 21° ENE 23:29:21 10° NE
USA 234 3.1 23:21:33 10° NE 23:28:03 65° SE 23:30:13 43° SSW
SL-08 RB Rocket 4.4 23:27:36 44° WSW 23:28:06 46° W 23:32:34 10° NNW
ARGOS 4.0 23:28:02 35° SW 23:29:31 43° W 23:34:36 10° NNW
Okean 1-7 Rocket 4.2 23:25:18 10° N 23:28:52 47° NE 23:28:52 47° NE
ISS 0.1 23:32:02 10° NW 23:33:20 12° NNW 23:34:37 10° N
CZ-3 Stage 3 4.2 22:33:16 10° W 23:34:34 57° SSW 23:37:00 46° SSE
Terra 1.8 23:35:40 81° NW 23:35:40 81° NW 23:40:14 10° NNW
Cosmos 1302 Rocket 4.1 23:46:58 68° NE 23:46:58 68° NE 23:51:38 10° NNE
Spot 4 4.0 23:50:39 70° NW 23:50:39 70° NW 23:55:00 10° NNW
